TimeEDT,TemperatureF,Dew PointF,Humidity,Sea Level PressureIn,VisibilityMPH,Wind Direction,Wind SpeedMPH,Gust SpeedMPH,PrecipitationIn,Events,Conditions,WindDirDegrees,DateUTC
12:53 AM,64.0,50.0,60,30.21,10.0,SSE,10.4,-,N/A,,Clear,160,2012-09-12 04:53:00
1:53 AM,63.0,50.0,63,30.21,10.0,SSE,9.2,-,N/A,,Clear,160,2012-09-12 05:53:00
2:53 AM,62.1,50.0,65,30.22,10.0,SSE,9.2,-,N/A,,Clear,160,2012-09-12 06:53:00
3:53 AM,61.0,50.0,67,30.22,10.0,SSE,9.2,-,N/A,,Clear,160,2012-09-12 07:53:00
4:53 AM,60.1,50.0,69,30.23,10.0,SSE,9.2,-,N/A,,Clear,160,2012-09-12 08:53:00
5:53 AM,60.1,50.0,69,30.24,10.0,SSE,9.2,-,N/A,,Clear,160,2012-09-12 09:53:00
6:53 AM,59.0,48.9,69,30.26,10.0,SSE,9.2,-,N/A,,Clear,160,2012-09-12 10:53:00
7:53 AM,60.1,48.9,67,30.27,10.0,SSE,9.2,-,N/A,,Clear,160,2012-09-12 11:53:00
8:53 AM,64.0,50.0,60,30.28,10.0,SSE,9.2,-,N/A,,Clear,160,2012-09-12 12:53:00
9:53 AM,69.1,51.1,53,30.28,10.0,South,9.2,-,N/A,,Clear,180,2012-09-12 13:53:00
10:53 AM,73.9,52.0,46,30.28,10.0,SSW,6.9,-,N/A,,Clear,210,2012-09-12 14:53:00
11:53 AM,77.0,51.1,40,30.27,10.0,West,8.1,-,N/A,,Clear,270,2012-09-12 15:53:00
12:53 PM,77.0,52.0,42,30.26,10.0,NW,4.6,-,N/A,,Clear,310,2012-09-12 16:53:00
1:53 PM,78.1,57.0,48,30.24,10.0,NW,6.9,-,N/A,,Clear,310,2012-09-12 17:53:00
2:53 PM,78.1,61.0,56,30.22,10.0,North,3.5,-,N/A,,Clear,10,2012-09-12 18:53:00
3:53 PM,78.1,60.1,54,30.21,10.0,NNE,6.9,-,N/A,,Mostly Cloudy,20,2012-09-12 19:53:00
4:53 PM,77.0,60.8,57,30.21,10.0,North,8.1,-,N/A,,Mostly Cloudy,360,2012-09-12 20:53:00
5:53 PM,75.9,61.0,60,30.20,10.0,NE,6.9,-,N/A,,Mostly Cloudy,50,2012-09-12 21:53:00
6:53 PM,79.0,53.1,40,30.19,10.0,South,10.4,-,N/A,,Mostly Cloudy,180,2012-09-12 22:53:00
7:53 PM,77.0,55.0,47,30.20,10.0,SSE,8.1,-,N/A,,Mostly Cloudy,160,2012-09-12 23:53:00
8:53 PM,75.0,55.0,50,30.22,10.0,SSE,6.9,-,N/A,,Mostly Cloudy,160,2012-09-13 00:53:00
9:53 PM,73.9,55.9,53,30.23,10.0,South,6.9,-,N/A,,Scattered Clouds,170,2012-09-13 01:53:00
10:53 PM,72.0,55.9,57,30.23,10.0,SSE,6.9,-,N/A,,Clear,160,2012-09-13 02:53:00
11:53 PM,71.1,55.9,59,30.23,10.0,SSE,9.2,-,N/A,,Clear,160,2012-09-13 03:53:00